Regional Weather Roundup
Issued by NWS

Home | Current Version | Previous Version | Text Only | Print | Product List | Glossary Off
Versions: 1 2 3 4 5 6 7 8 9 10 11 12 13 14 15 16 17 18 19 20 21 22 23 24 25 26 27 28 29 30 31 32 33 34 35 36 37 38 39 40 41 42 43 44 45 46 47 48 49 50

000
ASUS43 KDMX 020807
RWRIA

WEATHER ROUNDUP FOR IOWA
NATIONAL WEATHER SERVICE DES MOINES IA
300 AM CDT TUE SEP 02 2014

NOTE: "FAIR" INDICATES FEW OR NO CLOUDS BELOW 12,000 FEET WITH NO
SIGNIFICANT WEATHER AND/OR OBSTRUCTIONS TO VISIBILITY.

* - THESE STATIONS ARE NOT NWS STATIONS...THUS NOT UNDER NWS
QUALITY CONTROL.  THEY ALSO DO NOT REPORT WEATHER SUCH
AS PRECIPITATION OR FOG.

IAZ001>003-012>014-020>022-031>034-043>046-020900-
   NORTHWEST IOWA

CITY           SKY/WX    TMP DP  RH WIND       PRES   REMARKS
CARROLL *      CLOUDY    59  59 100 CALM      29.88F
CHEROKEE *     MOCLDY    59  59 100 N6        29.90S
DENISON *      CLEAR     57  57 100 NW7       29.89F
LE MARS *        N/A     59  57  94 W3        29.93R
ORANGE CITY *  DRIZZLE   61  55  82 W5        29.92S
SHELDON *      CLOUDY    59  59 100 W6        29.91R
SIOUX CITY     PTCLDY    58  56  93 W5          N/A
SPENCER        LGT RAIN  61  58  90 SW5       29.90S
STORM LAKE *   MOCLDY    59  59 100 N5        29.90F
$$

IAZ055>058-069>071-079>083-090>094-020900-
   SOUTHWEST IOWA

CITY           SKY/WX    TMP DP  RH WIND       PRES   REMARKS
ATLANTIC *     CLEAR     61  59  94 E5        29.89F
AUDUBON *      CLEAR     61  57  88 CALM      29.90F
CLARINDA *     FOG       61  61 100 S3        29.94F VSB 1/4
COUNCIL BLFS * CLEAR     61  61 100 N3        29.92R
CRESTON *      CLEAR     61  61 100 S7        29.94F
HARLAN  *      CLEAR     59  59 100 CALM      29.94F
LAMONI         MOCLDY    64  63  96 W5        29.93F
RED OAK *      MOCLDY    63  61  94 SE5       29.91F
SHENANDOAH *   CLEAR     64  63  94 CALM      29.92F
$$

IAZ047>049-059>061-072>074-084-020900-
   CENTRAL IOWA

CITY           SKY/WX    TMP DP  RH WIND       PRES   REMARKS
AMES           MOCLDY    65  60  84 NW14G23   29.91R
ANKENY *       CLEAR     66  63  88 W13       29.91F
CHARITON *     PTCLDY    64  63  94 W7        29.93S
DES MOINES     PTCLDY    67  61  81 NW16G28   29.90F
GRINNELL*      CLEAR     61  59  94 CALM      29.91S
KNOXVILLE *    PTCLDY    63  61  94 W7        29.90S
MARSHALLTOWN   CLEAR     61  59  93 W5        29.89F
PELLA *        CLEAR     63  63 100 W3        29.91F
PERRY *        MOCLDY    63  59  88 CALM      29.89F
$$

IAZ004>006-015-016-023>025-035-036-020900-
   NORTH CENTRAL IOWA

CITY           SKY/WX    TMP DP  RH WIND       PRES   REMARKS
ALGONA *       CLEAR     63  61  94 SW9       29.89S
CLARION *      CLOUDY    63  63 100 W22G29    29.89S
ESTHERVILLE    CLOUDY    60  58  92 SW8       29.89R
FORT DODGE *   CLOUDY    61  57  88 W7G21     29.90F
MASON CITY     MOCLDY    61  58  90 SW7       29.88F
FOREST CITY *  CLEAR     55  55 100 CALM      29.87F
IOWA FALLS *     N/A     61  59  94 SW5       29.90S
$$

IAZ007>011-017>019-026>030-037>042-050>054-066-020900-
   NORTHEAST IOWA

CITY           SKY/WX    TMP DP  RH WIND       PRES   REMARKS
CEDAR RAPIDS   PTCLDY    62  62 100 VRB5      29.89S
CHARLES CITY * CLEAR     57  55  94 CALM      29.88F
CLINTON *      MOCLDY    63  59  88 CALM      29.90S VSB 1/2
DECORAH *      CLEAR     57  57 100 S3        29.87R
DUBUQUE        CLEAR     60  59  96 SW3       29.90R
MONTICELLO *   CLEAR     59  59 100 CALM      29.89R FOG
OELWEIN *      CLEAR     57  57 100 CALM      29.89F
WATERLOO       CLEAR     60  59  96 CALM      29.87F
$$

IAZ064-065-067-068-078-020900-
   EAST CENTRAL IOWA

CITY           SKY/WX    TMP DP  RH WIND       PRES   REMARKS
DAVENPORT      FOG       60  59  96 CALM      29.88F VSB 1/4
IOWA CITY      PTCLDY    65  63  93 CALM      29.89S
MT. PLEASANT * FOG       64  64 100 CALM      29.90S VSB 1/2
MUSCATINE *    CLEAR     66  64  94 S3        29.89R FOG
QUAD CITIES    FOG       66  64  93 CALM      29.88R VSB 1
$$

IAZ062-063-075>077-085>089-095>099-020900-
   SOUTHEAST IOWA

CITY           SKY/WX    TMP DP  RH WIND       PRES   REMARKS
BURLINGTON     CLOUDY    67  66  97 NW3       29.88F
FAIRFIELD *    PTCLDY    64  63  94 SW3       29.91R FOG
FORT MADISON * PTCLDY    70  68  94 CALM      29.90S
KEOKUK *       CLOUDY    72  70  94 SW10      29.89S
OSKALOOSA *      N/A     61  61 100 W5        29.90F
CENTERVILLE *  CLEAR     63  63 100 SW3       29.94R
OTTUMWA        PTCLDY    63  62  97 CALM      29.90S FOG
WASHINGTON *   CLEAR     64  64 100 W3        29.90R
$$

ABBREVIATIONS USED IN REMARKS
   TC - TEMPERATURES IN CELSIUS
  WCI - WIND CHILL INDEX
   HX - HEAT INDEX
  VSB - VISIBILITY
$$




USA.gov is the U.S. government's official web portal to all federal, state and local government web resources and services.